{"data":{"norad_id":53790,"intl_designator":"2022-111T","name":"STARLINK-4734","alt_names":[],"object_type":"PAYLOAD","status":"ACTIVE","operator":null,"country":"US","launch_date":"2022-09-11","launch_site_code":"AFETR","launch_vehicle":null,"mission":null,"orbit_class":"UNKNOWN","rcs_meters":null,"size_class":null,"mass_kg":null,"dimensions":null,"purposes":["comms"],"wikipedia_slug":null,"has_3d_model":false,"image_url":null,"decayed_at":null,"tle_current":{"epoch":"2026-05-25T02:28:04.297728Z","epoch_age_seconds":69684,"freshness":"FRESH","line1":"1 53790U 22111T   26145.10282752  .00005534  00000+0  36572-3 0  9998","line2":"2 53790  53.2125 290.9654 0001837  86.1641 273.9561 15.08818244205230","mean_motion":15.08818244,"eccentricity":0.0001837,"inclination_deg":53.2125,"raan_deg":290.9654,"arg_perigee_deg":86.1641,"mean_anomaly_deg":273.9561,"bstar":0.00036572,"rev_number":20523,"period_min":95.438930813989,"perigee_km":538.539062308,"apogee_km":541.08071599508,"semimajor_km":6917.9468891515,"source":"CELESTRAK","updated_at":"2026-05-25T13:38:17.543973Z"}}}